User: anonymous
Location: Unspecified
(0.0000°N, 0.0000°E)
Time: 06:50:08
(UTC+00:00)
Language:

HST - Orbit

View from above orbital plane
View from above orbital plane
View from above satellite
View from above satellite

Ground track
Ground track

The orbit data is extracted from the following two-line orbital elements,

1 20580U 90037B   14231.49941058  .00001070  00000-0  60552-4 0   794
2 20580 028.4707 340.8729 0002677 244.7539 197.6761 15.05628308134265
Epoch (UTC): 19 August 2014 11:59:09
Eccentricity: 0.0002677
inclination: 28.4707°
perigee height: 548 km
apogee height: 551 km
right ascension of ascending node: 340.8729°
argument of perigee: 244.7539°
revolutions per day: 15.05628308
mean anomaly at epoch: 197.6761°
orbit number at epoch: 13426

The dashed part of the orbit path shows where the satellite is in the earth's shadow,  

DLR